Flag for Switzerland Weather past 2 weeks in Buchs, St. Gallen, Switzerland

Now
77 °F

Scattered clouds.


Feels Like: 78 °F
Forecast: 60 / 82 °F
Wind: 2 mph from West

Location: Vaduz

Current Time: Sep 19, 2014 at 2:52:25 PM

Latest Report: Sep 19, 2014 at 2:00 PM


Visibility: 8 mi

Pressure: 29.88 "Hg

Humidity: 39%

Dew point: 51 °F

Location of BuchsLocation

Historic Weather in Buchs — Graph

°F

Buchs temperature yesterday

Maximum temperature yesterday: 78 °F (at 2:00 PM)
Minimum temperature yesterday: 63 °F (at 8:00 AM)
Average temperature yesterday: 70 °F

Past Weeks' High & Low Weather Summary

 TemperatureHumidityPressure
High78 °F (Sep 18, 2:00 PM)98% (Sep 5, 2:00 AM)30.16 "Hg (Sep 5, 2:00 AM)
Low51 °F (Sep 12, 5:00 AM)33% (Sep 18, 2:00 PM)29.80 "Hg (Sep 17, 4:00 PM)
Average63 °F77%29.98 "Hg
* Reported Sep 4 1:00 PM — Sep 19 1:00 PM, Buchs, Weather by CustomWeather, © 2014

Note: Actual official high and low records may vary slightly from our data, if they occured in-between our weather recording intervals... More about our weather records

Advertising

Buchs weather history for previous 24 hours

 ConditionsComfort  
Time TempWeatherWind HumidityBarometerVisibility
1:00 PM
Sep 19
78 °FWarm.5 mph52%29.89 "HgN/A
12:00 PM74 °FMild.7 mph57%29.91 "HgN/A
11:00 AM71 °FMild.6 mph62%29.93 "HgN/A
10:00 AM66 °FMild.3 mph74%29.94 "HgN/A
9:00 AM63 °FMild.2 mph81%29.96 "HgN/A
8:00 AM62 °FFog.1 mph77%29.95 "Hg5 mi
7:00 AM69 °FMild.3 mph49%29.92 "HgN/A
6:00 AM69 °FMild.7 mph48%29.90 "HgN/A
5:00 AM70 °FOvercast.3 mph47%29.90 "Hg9 mi
4:00 AM69 °FMild.6 mph48%29.91 "HgN/A
3:00 AM68 °FMild.6 mph51%29.92 "HgN/A
2:00 AM69 °FOvercast.7 mph49%29.93 "Hg9 mi
1:00 AM69 °FMild.6 mph48%29.92 "HgN/A
12:00 AM70 °FMild.7 mph48%29.92 "HgN/A
11:00 PM
Sep 18
69 °FOvercast.5 mph50%29.92 "Hg9 mi
10:00 PM70 °FMild.7 mph47%29.91 "HgN/A
9:00 PM71 °FMild.5 mph45%29.90 "HgN/A
8:00 PM70 °FOvercast.2 mph50%29.89 "Hg12 mi
7:00 PM69 °FMild.2 mph53%29.88 "HgN/A
6:00 PM73 °FMild.5 mph43%29.87 "HgN/A
5:00 PM74 °FPartly sunny.5 mph39%29.85 "Hg7 mi
4:00 PM76 °FMild.7 mph38%29.83 "HgN/A
3:00 PM77 °FPleasantly warm.10 mph38%29.82 "HgN/A
2:00 PM78 °FScattered clouds.12 mph33%29.81 "Hg7 mi
Weather by CustomWeather, © 2014

See weather overviewHow to use our weather pages